This is the latest recevied weather packets stored in our database for station/object WX6HNX-2. If no packets are shown the sender has not sent any weather packets the latest 10 day(s).
| Time | Temp. | Humidity | Pressure | Rain* | Wind** | Luminosity | Snow |
|---|---|---|---|---|---|---|---|
| 1777824463 | 17.78° C | 72% | 1010.8 hPa | 0 mm | - | - | - |
| 1777823983 | 17.22° C | 71% | 1010.8 hPa | 0 mm | - | - | - |
| 1777823742 | 17.22° C | 72% | 1010.8 hPa | 0 mm | - | - | - |
| 1777823503 | 17.22° C | 71% | 1010.8 hPa | 0 mm | - | - | - |
| 1777823023 | 16.67° C | 70% | 1010.7 hPa | 0 mm | - | - | - |
| 1777822783 | 16.67° C | 70% | 1010.7 hPa | 0 mm | - | - | - |
| 1777822303 | 16.67° C | 73% | 1010.6 hPa | 0 mm | - | - | - |
| 1777822063 | 16.67° C | 75% | 1010.6 hPa | 0 mm | - | - | - |
| 1777821823 | 16.11° C | 74% | 1010.6 hPa | 0 mm | - | - | - |
| 1777821583 | 16.11° C | 74% | 1010.6 hPa | 0 mm | - | - | - |
| 1777821103 | 16.11° C | 69% | 1010.7 hPa | 0 mm | - | - | - |
| 1777820862 | 15.56° C | 76% | 1010.6 hPa | 0 mm | - | - | - |
| 1777820623 | 15° C | 78% | 1010.6 hPa | 0 mm | - | - | - |
| 1777820383 | 13.89° C | 80% | 1010.5 hPa | 0 mm | - | - | - |
| 1777820143 | 13.89° C | 82% | 1010.5 hPa | 0 mm | - | - | - |
| 1777819902 | 13.33° C | 82% | 1010.5 hPa | 0 mm | - | - | - |
| 1777819662 | 12.78° C | 82% | 1010.6 hPa | 0 mm | - | - | - |
| 1777819422 | 12.78° C | 84% | 1010.6 hPa | 0 mm | - | - | - |
| 1777819182 | 12.22° C | 85% | 1010.5 hPa | 0 mm | - | - | - |
| 1777818943 | 11.67° C | 86% | 1010.5 hPa | 0 mm | - | - | - |
| 1777818702 | 11.67° C | 87% | 1010.5 hPa | 0 mm | - | - | - |
| 1777818463 | 11.11° C | 88% | 1010.5 hPa | 0 mm | - | - | - |
| 1777818222 | 11.11° C | 88% | 1010.5 hPa | 0 mm | - | - | - |
| 1777817982 | 11.11° C | 87% | 1010.3 hPa | 0 mm | - | - | - |
| 1777817743 | 11.11° C | 87% | 1010.4 hPa | 0 mm | - | - | - |
* Rain latest hour (hover to see other rain measurements)
** Current wind speed in m/s (hover to see current wind gust speed)